MPH8437 EHAM-LSGG

Flight info

Callsign MPH8437
Flight time N/A
Altitude 33000
Route EDUPO Z739 MISGO DCT ASBON DCT TUSUK DCT KRH/N0484F320 DCT NATOR/N0483F330 DCT LUTIX DCT BENOT
Aircraft MD11/H-SDE1E2E3FGHIJ2J3J4J5M1RWXY/LB1D1

Departure

Time N/A
Airport Amsterdam Airport Schiphol (EHAM)

Arrival

Time 2026-05-04 19:02
Airport Geneva International Airport (LSGG)
Time Latitude Longitude Altitude Speed Heading
2026-05-04 18:03 51.38236 6.90071 32993 ft 466 kts 150°
2026-05-04 18:04 51.38081 6.90244 33005 ft 466 kts 151°
2026-05-04 18:05 51.29902 6.98318 32983 ft 457 kts 154°
2026-05-04 18:05 51.24492 7.03690 32984 ft 459 kts 152°
2026-05-04 18:06 51.16477 7.12111 32989 ft 459 kts 152°
2026-05-04 18:06 51.11081 7.17720 32995 ft 468 kts 153°
2026-05-04 18:07 51.05586 7.23384 33002 ft 471 kts 153°
2026-05-04 18:07 51.00111 7.29018 33004 ft 468 kts 153°
2026-05-04 18:08 50.94642 7.34622 33003 ft 468 kts 153°
2026-05-04 18:08 50.89163 7.40218 33004 ft 468 kts 153°
2026-05-04 18:09 50.78241 7.51330 32985 ft 468 kts 153°
2026-05-04 18:10 50.72734 7.56906 33008 ft 472 kts 153°
2026-05-04 18:10 50.67200 7.62497 33009 ft 472 kts 153°
2026-05-04 18:11 50.61665 7.68074 33000 ft 472 kts 153°
2026-05-04 18:11 50.56152 7.73588 33005 ft 468 kts 153°
2026-05-04 18:12 50.50665 7.79040 33006 ft 467 kts 153°
2026-05-04 18:12 50.45168 7.84513 33004 ft 467 kts 153°
2026-05-04 18:13 50.39670 7.89987 32998 ft 468 kts 153°
2026-05-04 18:14 50.31382 7.98214 33005 ft 470 kts 152°
2026-05-04 18:14 50.25868 8.03671 32993 ft 469 kts 152°
2026-05-04 18:15 50.14786 8.14407 32967 ft 465 kts 158°
2026-05-04 18:16 50.08764 8.17700 32961 ft 455 kts 170°
2026-05-04 18:16 50.02585 8.19816 32961 ft 455 kts 171°
2026-05-04 18:17 49.93318 8.23132 32964 ft 458 kts 170°
2026-05-04 18:18 49.84049 8.26678 32983 ft 461 kts 170°
2026-05-04 18:18 49.77824 8.29069 32984 ft 461 kts 170°
2026-05-04 18:19 49.68496 8.32632 32983 ft 460 kts 170°
2026-05-04 18:19 49.62271 8.34998 32982 ft 461 kts 170°
2026-05-04 18:20 49.56035 8.37364 32983 ft 461 kts 170°
2026-05-04 18:20 49.49804 8.39721 32984 ft 461 kts 170°
2026-05-04 18:21 49.43564 8.42076 32978 ft 461 kts 169°
2026-05-04 18:21 49.37352 8.44414 32977 ft 460 kts 169°
2026-05-04 18:22 49.31108 8.46752 32980 ft 461 kts 169°
2026-05-04 18:22 49.24873 8.49068 32980 ft 461 kts 169°
2026-05-04 18:23 49.18648 8.51385 32995 ft 460 kts 169°
2026-05-04 18:23 49.12439 8.53697 32980 ft 458 kts 169°
2026-05-04 18:24 49.06240 8.56000 32993 ft 458 kts 169°
2026-05-04 18:24 49.00016 8.58005 33002 ft 455 kts 177°
2026-05-04 18:25 48.93775 8.57572 32991 ft 448 kts 193°
2026-05-04 18:25 48.87826 8.55268 33000 ft 447 kts 197°
2026-05-04 18:26 48.81741 8.52900 33003 ft 447 kts 195°
2026-05-04 18:26 48.75706 8.50829 33001 ft 448 kts 194°
2026-05-04 18:27 48.69621 8.48853 33005 ft 448 kts 193°
2026-05-04 18:27 48.63522 8.46894 33004 ft 448 kts 193°
2026-05-04 18:28 48.57425 8.44936 33005 ft 448 kts 193°
2026-05-04 18:28 48.51322 8.42976 33010 ft 448 kts 193°
2026-05-04 18:29 48.45224 8.41022 33010 ft 448 kts 193°
2026-05-04 18:29 48.39123 8.39072 33010 ft 448 kts 193°
2026-05-04 18:30 48.29979 8.36158 33005 ft 448 kts 193°
2026-05-04 18:31 48.23877 8.34219 33013 ft 448 kts 193°
2026-05-04 18:31 48.17834 8.32228 33006 ft 447 kts 197°
2026-05-04 18:32 48.12196 8.28432 33014 ft 445 kts 212°
2026-05-04 18:32 48.07096 8.23207 33015 ft 444 kts 215°
2026-05-04 18:33 48.02006 8.17960 33014 ft 445 kts 213°
2026-05-04 18:33 47.96858 8.12885 33019 ft 444 kts 213°
2026-05-04 18:34 47.91659 8.07862 33013 ft 445 kts 213°
2026-05-04 18:34 47.86456 8.02861 33018 ft 445 kts 213°
2026-05-04 18:35 47.81244 7.97860 33017 ft 445 kts 212°
2026-05-04 18:35 47.76035 7.92871 33015 ft 446 kts 212°
2026-05-04 18:36 47.71698 7.88726 33011 ft 446 kts 212°
2026-05-04 18:36 47.65621 7.82931 33011 ft 447 kts 212°
2026-05-04 18:37 47.60391 7.77958 33004 ft 447 kts 212°
2026-05-04 18:37 47.57765 7.75465 32855 ft 450 kts 212°
2026-05-04 18:37 47.56019 7.73809 32660 ft 450 kts 212°
2026-05-04 18:37 47.53386 7.71314 32196 ft 445 kts 212°
2026-05-04 18:38 47.50818 7.68884 31645 ft 437 kts 212°
2026-05-04 18:38 47.48264 7.66470 31102 ft 434 kts 212°
2026-05-04 18:38 47.45724 7.64075 30563 ft 436 kts 211°
2026-05-04 18:38 47.43148 7.61665 30014 ft 438 kts 211°
2026-05-04 18:39 47.40565 7.59255 29370 ft 440 kts 211°
2026-05-04 18:39 47.37967 7.56828 28763 ft 442 kts 211°
2026-05-04 18:39 47.35360 7.54389 28165 ft 445 kts 211°
2026-05-04 18:39 47.32739 7.51935 27580 ft 447 kts 212°
2026-05-04 18:40 47.30112 7.49474 27010 ft 449 kts 212°
2026-05-04 18:40 47.27469 7.47001 26426 ft 451 kts 212°
2026-05-04 18:40 47.24827 7.44530 25850 ft 449 kts 212°
2026-05-04 18:40 47.22199 7.42075 25262 ft 445 kts 212°
2026-05-04 18:41 47.19628 7.39676 24680 ft 442 kts 212°
2026-05-04 18:41 47.17062 7.37208 24097 ft 438 kts 217°
2026-05-04 18:41 47.14802 7.34233 23530 ft 435 kts 226°
2026-05-04 18:41 47.12831 7.30879 22872 ft 433 kts 230°
2026-05-04 18:42 47.10989 7.27394 22270 ft 430 kts 232°
2026-05-04 18:42 47.09192 7.23907 21704 ft 427 kts 232°
2026-05-04 18:42 47.07399 7.20452 21127 ft 424 kts 232°
2026-05-04 18:42 47.05600 7.17045 20574 ft 421 kts 231°
2026-05-04 18:43 47.03795 7.13682 20012 ft 418 kts 231°
2026-05-04 18:43 47.01990 7.10356 19457 ft 416 kts 231°
2026-05-04 18:43 47.00194 7.07062 18915 ft 413 kts 231°
2026-05-04 18:43 46.98402 7.03785 18378 ft 410 kts 231°
2026-05-04 18:44 46.96623 7.00536 17754 ft 408 kts 231°
2026-05-04 18:44 46.95453 6.98402 17380 ft 405 kts 231°
2026-05-04 18:44 46.93102 6.94114 16653 ft 401 kts 231°
2026-05-04 18:44 46.91380 6.90979 16130 ft 400 kts 231°
2026-05-04 18:45 46.89639 6.87815 15603 ft 397 kts 231°
2026-05-04 18:45 46.87909 6.84674 15097 ft 395 kts 231°
2026-05-04 18:45 46.86189 6.81548 14584 ft 393 kts 231°
2026-05-04 18:45 46.84480 6.78443 14091 ft 391 kts 231°
2026-05-04 18:46 46.82783 6.75362 13555 ft 388 kts 231°
2026-05-04 18:46 46.81095 6.72299 13024 ft 385 kts 231°
2026-05-04 18:46 46.79420 6.69263 12517 ft 382 kts 231°
2026-05-04 18:46 46.77759 6.66255 12023 ft 379 kts 231°
2026-05-04 18:47 46.76111 6.63274 11531 ft 376 kts 231°
2026-05-04 18:47 46.74475 6.60322 11127 ft 371 kts 230°
2026-05-04 18:47 46.72645 6.57707 10944 ft 366 kts 215°
2026-05-04 18:47 46.70474 6.56029 10821 ft 342 kts 202°
2026-05-04 18:48 46.68302 6.54903 10701 ft 320 kts 199°
2026-05-04 18:48 46.66270 6.53982 10576 ft 301 kts 198°
2026-05-04 18:48 46.64330 6.53112 10450 ft 282 kts 198°
2026-05-04 18:48 46.62500 6.52274 10201 ft 271 kts 199°
2026-05-04 18:49 46.60712 6.51437 9789 ft 270 kts 199°
2026-05-04 18:49 46.58934 6.50594 9329 ft 268 kts 199°
2026-05-04 18:49 46.57175 6.49751 8906 ft 265 kts 199°
2026-05-04 18:49 46.55427 6.48910 8509 ft 263 kts 199°
2026-05-04 18:50 46.53692 6.48073 8139 ft 262 kts 199°
2026-05-04 18:50 46.51971 6.47240 7931 ft 259 kts 199°
2026-05-04 18:50 46.50312 6.46437 7825 ft 245 kts 199°
2026-05-04 18:50 46.48729 6.45672 7709 ft 237 kts 199°
2026-05-04 18:51 46.47165 6.44872 7516 ft 238 kts 205°
2026-05-04 18:51 46.45839 6.43481 7350 ft 235 kts 230°
2026-05-04 18:51 46.45199 6.41388 7153 ft 234 kts 260°
2026-05-04 18:51 46.45468 6.39040 6976 ft 246 kts 293°
2026-05-04 18:52 46.46670 6.37250 6778 ft 257 kts 330°
2026-05-04 18:52 46.48429 6.36760 6606 ft 264 kts
2026-05-04 18:52 46.50217 6.37426 6442 ft 267 kts 20°
2026-05-04 18:52 46.51948 6.38433 6263 ft 268 kts 22°
2026-05-04 18:53 46.53667 6.39485 6088 ft 267 kts 22°
2026-05-04 18:53 46.55373 6.40527 6037 ft 265 kts 24°
2026-05-04 18:53 46.56936 6.41929 6030 ft 264 kts 46°
2026-05-04 18:53 46.57825 6.44170 6031 ft 254 kts 83°
2026-05-04 18:54 46.57674 6.46625 6035 ft 241 kts 120°
2026-05-04 18:54 46.56628 6.48428 6036 ft 235 kts 150°
2026-05-04 18:54 46.55092 6.49087 6039 ft 232 kts 182°
2026-05-04 18:54 46.53458 6.48573 6055 ft 234 kts 199°
2026-05-04 18:55 46.51988 6.47774 6032 ft 234 kts 201°
2026-05-04 18:55 46.48975 6.46039 6032 ft 234 kts 201°
2026-05-04 18:55 46.47472 6.45135 6029 ft 234 kts 208°
2026-05-04 18:56 46.46177 6.43717 6068 ft 232 kts 221°
2026-05-04 18:56 46.45025 6.42134 6034 ft 225 kts 222°
2026-05-04 18:56 46.43897 6.40545 6021 ft 227 kts 223°
2026-05-04 18:56 46.42782 6.38914 5835 ft 226 kts 223°
2026-05-04 18:57 46.41683 6.37291 5662 ft 226 kts 223°
2026-05-04 18:57 46.40579 6.35659 5380 ft 226 kts 223°
2026-05-04 18:57 46.39477 6.34030 5058 ft 225 kts 223°
2026-05-04 18:57 46.38408 6.32446 4751 ft 213 kts 223°
2026-05-04 18:58 46.37417 6.30975 4668 ft 199 kts 223°
2026-05-04 18:58 46.36436 6.29527 4603 ft 203 kts 223°
2026-05-04 18:58 46.35450 6.28070 4322 ft 201 kts 224°
2026-05-04 18:58 46.34492 6.26654 4062 ft 198 kts 224°
2026-05-04 18:59 46.33551 6.25261 3813 ft 188 kts 224°
2026-05-04 18:59 46.32678 6.23971 3527 ft 172 kts 224°
2026-05-04 18:59 46.31836 6.22727 3327 ft 172 kts 224°
2026-05-04 18:59 46.30999 6.21493 3106 ft 171 kts 224°
2026-05-04 19:00 46.30163 6.20260 2874 ft 172 kts 225°
2026-05-04 19:00 46.29331 6.19033 2610 ft 171 kts 225°
2026-05-04 19:00 46.28506 6.17815 2378 ft 170 kts 226°
2026-05-04 19:00 46.27682 6.16600 2128 ft 169 kts 226°
2026-05-04 19:01 46.26863 6.15392 1889 ft 168 kts 226°
2026-05-04 19:01 46.26047 6.14193 1682 ft 166 kts 226°
2026-05-04 19:01 46.25233 6.13000 1471 ft 167 kts 226°
2026-05-04 19:01 46.24445 6.11834 1378 ft 146 kts 226°
2026-05-04 19:02 46.23870 6.10987 1384 ft 87 kts 225°
2026-05-04 19:02 46.23496 6.10436 1405 ft 60 kts 226°
2026-05-04 19:02 46.23315 6.10193 1413 ft 28 kts 214°
2026-05-04 19:02 46.23183 6.10109 1413 ft 13 kts 197°
2026-05-04 19:03 46.23113 6.10094 1411 ft 8 kts 166°
2026-05-04 19:03 46.23064 6.10153 1406 ft 11 kts 137°
2026-05-04 19:03 46.23008 6.10228 1406 ft 11 kts 137°
2026-05-04 19:03 46.22963 6.10299 1409 ft 8 kts 122°
2026-05-04 19:04 46.22973 6.10371 1408 ft 9 kts 52°
2026-05-04 19:04 46.23023 6.10447 1406 ft 12 kts 45°
2026-05-04 19:04 46.23093 6.10548 1409 ft 15 kts 45°
2026-05-04 19:04 46.23166 6.10654 1408 ft 14 kts 45°
2026-05-04 19:05 46.23231 6.10749 1405 ft 13 kts 43°
2026-05-04 19:05 46.23308 6.10797 1408 ft 12 kts 18°
2026-05-04 19:05 46.23373 6.10867 1408 ft 12 kts 46°
2026-05-04 19:05 46.23432 6.10955 1409 ft 12 kts 46°
2026-05-04 19:06 46.23497 6.11052 1405 ft 15 kts 45°
2026-05-04 19:06 46.23567 6.11148 1407 ft 10 kts 27°
2026-05-04 19:06 46.23632 6.11114 1407 ft 12 kts 319°
2026-05-04 19:06 46.23705 6.11084 1402 ft 13 kts 21°
2026-05-04 19:07 46.23789 6.11205 1382 ft 19 kts 46°
2026-05-04 19:07 46.23852 6.11296 1381 ft 5 kts 44°
2026-05-04 19:07 46.23870 6.11332 1379 ft 3 kts 71°
2026-05-04 19:07 46.23866 6.11350 1380 ft 1 kts 109°
2026-05-04 19:08 46.23858 6.11358 1379 ft 3 kts 137°
2026-05-04 19:08 46.23837 6.11387 1382 ft 4 kts 135°
2026-05-04 19:08 46.23824 6.11405 1383 ft 1 kts 135°